Powrót do katalogu

RADIO 8

AktywnyKrótkofalarstwoPO
NORAD 12998·PAYLOAD·🇷🇺 Russia

Wystrzelony Dec 17, 1981 z Plesetsk Cosmodrome

Loading…

Następne Przeloty (najbliższe 24 godziny)

TLE

ŚwieżeSource: Space-Track

Epoka: Sep 14, 2026, 00:14 UTC

1 12998U 81120B   26257.01023669 -.00000056  00000-0 -78239-3 0  9995
2 12998  82.9536  72.8146 0018741 302.6332 217.6154 12.03199915964849

Śledź RADIO 8 w czasie rzeczywistym z AllMySat

Download on the App Store